This demonstration page uses our WeatherBlox Daily Observations layout. Learn more.

Left ArrowRight Arrow

Hourly Observations for November 15, 2021

Temp ( °F °C ) Dew Point ( °F °C ) Humidity (%) Winds ( mph kmh ) Pressure ( in mb ) Visibility ( mi km ) Precip ( " mm )
12:15 am 00:15 Mostly Cloudy 37 3 34 1 87 87 N N/A 29.82 1010 10 16 N/A
12:35 am 00:35 Partly Cloudy 36 2 34 1 93 93 N N/A 29.82 1010 10 16 N/A
12:55 am 00:55 Partly Cloudy 36 2 34 1 93 93 WNW 3 6 29.82 1010 10 16 N/A
1:15 am 01:15 Mostly Cloudy 36 2 34 1 93 93 W 3 6 29.81 1009 10 16 N/A
1:35 am 01:35 Cloudy 37 3 34 1 87 87 NW 5 7 29.81 1009 10 16 N/A
1:55 am 01:55 Cloudy 43 6 36 2 76 76 WNW 17 28 29.82 1010 10 16 N/A
2:15 am 02:15 Cloudy 43 6 36 2 76 76 NW 14 22 29.84 1011 10 16 N/A
2:35 am 02:35 Cloudy 43 6 34 1 71 71 WNW 18 30 29.84 1011 10 16 N/A
2:55 am 02:55 Cloudy 43 6 34 1 71 71 WNW 17 28 29.84 1011 10 16 N/A
3:15 am 03:15 Cloudy 43 6 30 -1 61 61 WNW 18 30 29.85 1011 10 16 N/A
3:35 am 03:35 Mostly Cloudy 43 6 30 -1 61 61 WNW 20 31 29.86 1011 10 16 N/A
3:55 am 03:55 Partly Cloudy 41 5 30 -1 66 66 WNW 13 20 29.86 1011 10 16 N/A
4:15 am 04:15 Partly Cloudy 41 5 28 -2 61 61 WNW 10 17 29.86 1011 10 16 N/A
4:35 am 04:35 Partly Cloudy 41 5 30 -1 66 66 WNW 8 13 29.86 1011 10 16 N/A
4:55 am 04:55 Cloudy 41 5 30 -1 66 66 WNW 9 15 29.87 1012 10 16 N/A
5:15 am 05:15 Cloudy 41 5 30 -1 66 66 WNW 9 15 29.87 1012 10 16 N/A
5:35 am 05:35 Cloudy 41 5 30 -1 66 66 W 6 9 29.88 1012 10 16 N/A
5:55 am 05:55 Cloudy 41 5 30 -1 66 66 WNW 8 13 29.88 1012 10 16 N/A
6:15 am 06:15 Cloudy 41 5 30 -1 66 66 W 8 13 29.89 1012 10 16 N/A
6:35 am 06:35 Cloudy 41 5 30 -1 66 66 W 9 15 29.90 1013 10 16 N/A
6:55 am 06:55 Cloudy 41 5 32 undefined 70 70 W 10 17 29.92 1013 10 16 N/A
7:15 am 07:15 Cloudy 41 5 32 undefined 70 70 W 10 17 29.93 1014 10 16 N/A
7:35 am 07:35 Cloudy 41 5 32 undefined 70 70 W 12 19 29.94 1014 10 16 N/A
7:55 am 07:55 Cloudy 43 6 32 undefined 66 66 W 16 26 29.94 1014 10 16 N/A
8:15 am 08:15 Cloudy 43 6 32 undefined 66 66 W 15 24 29.96 1015 10 16 N/A
8:35 am 08:35 Cloudy 43 6 32 undefined 66 66 W 10 17 29.96 1015 10 16 N/A
8:55 am 08:55 Mostly Cloudy 43 6 32 undefined 66 66 W 16 26 29.96 1015 10 16 N/A
9:15 am 09:15 Partly Cloudy 43 6 32 undefined 66 66 W 17 28 29.98 1015 10 16 N/A
9:35 am 09:35 Partly Cloudy 45 7 32 undefined 61 61 WNW 15 24 29.99 1016 10 16 N/A
9:55 am 09:55 Mostly Cloudy 45 7 32 undefined 61 61 WNW 17 28 30.00 1016 10 16 N/A
10:15 am 10:15 Mostly Cloudy 45 7 32 undefined 61 61 WNW 24 39 30.01 1016 10 16 N/A
10:35 am 10:35 Cloudy 45 7 32 undefined 61 61 NW 20 31 30.02 1017 10 16 N/A
10:55 am 10:55 Cloudy 46 8 32 undefined 57 57 WNW 24 39 30.02 1017 10 16 N/A
11:15 am 11:15 Cloudy 48 9 32 undefined 54 54 NNW 28 44 30.02 1017 10 16 N/A
11:35 am 11:35 Cloudy 46 8 32 undefined 57 57 NW 23 37 30.02 1017 10 16 N/A
11:55 am 11:55 Cloudy 46 8 32 undefined 57 57 NW 17 28 30.03 1017 10 16 N/A
12:15 pm 12:15 Cloudy 46 8 32 undefined 57 57 NW 24 39 30.03 1017 10 16 N/A
12:35 pm 12:35 Cloudy 45 7 32 undefined 61 61 WNW 23 37 30.03 1017 10 16 N/A
12:55 pm 12:55 Cloudy 45 7 32 undefined 61 61 WNW 18 30 30.04 1017 10 16 N/A
1:15 pm 13:15 Cloudy 45 7 32 undefined 61 61 WNW 14 22 30.05 1018 10 16 N/A
1:35 pm 13:35 Cloudy 46 8 32 undefined 57 57 W 20 31 30.05 1018 10 16 N/A
1:55 pm 13:55 Cloudy 45 7 32 undefined 61 61 W 8 13 30.05 1018 10 16 N/A
2:15 pm 14:15 Cloudy 45 7 32 undefined 61 61 WNW 17 28 30.06 1018 10 16 N/A
2:35 pm 14:35 Cloudy 45 7 30 -1 57 57 WNW 18 30 30.05 1018 10 16 N/A
2:55 pm 14:55 Cloudy 45 7 30 -1 57 57 WNW 12 19 30.06 1018 10 16 N/A
3:15 pm 15:15 Cloudy 45 7 30 -1 57 57 WNW 8 13 30.07 1018 10 16 N/A
3:35 pm 15:35 Cloudy 45 7 28 -2 53 53 WNW 17 28 30.08 1019 10 16 N/A
3:55 pm 15:55 Cloudy 45 7 30 -1 57 57 WNW 16 26 30.10 1019 10 16 N/A
4:15 pm 16:15 Cloudy 45 7 28 -2 53 53 NW 15 24 30.10 1019 10 16 N/A
4:35 pm 16:35 Cloudy 43 6 28 -2 57 57 NW 14 22 30.10 1019 10 16 N/A
4:55 pm 16:55 Cloudy 43 6 28 -2 57 57 NNW 15 24 30.10 1019 10 16 N/A
5:15 pm 17:15 Mostly Cloudy 43 6 28 -2 57 57 WNW 7 11 30.11 1020 10 16 N/A
5:35 pm 17:35 Cloudy 43 6 28 -2 57 57 WNW 10 17 30.12 1020 10 16 N/A
5:55 pm 17:55 Cloudy 43 6 28 -2 57 57 WNW 12 19 30.12 1020 10 16 N/A
6:15 pm 18:15 Cloudy 43 6 28 -2 57 57 W 10 17 30.13 1020 10 16 N/A
6:35 pm 18:35 Mostly Cloudy 41 5 28 -2 61 61 WNW 9 15 30.13 1020 10 16 N/A
6:55 pm 18:55 Partly Cloudy 41 5 28 -2 61 61 WNW 8 13 30.14 1021 10 16 N/A
7:15 pm 19:15 Mostly Cloudy 41 5 30 -1 66 66 WNW 8 13 30.14 1021 10 16 N/A
7:35 pm 19:35 Mostly Cloudy 43 6 28 -2 57 57 NW 10 17 30.13 1020 10 16 N/A
7:55 pm 19:55 Partly Cloudy 41 5 28 -2 61 61 NW 9 15 30.13 1020 10 16 N/A
8:15 pm 20:15 Partly Cloudy 41 5 28 -2 61 61 N N/A 30.14 1021 10 16 N/A
8:35 pm 20:35 Mostly Cloudy 41 5 30 -1 66 66 N N/A 30.15 1021 10 16 N/A
8:55 pm 20:55 Partly Cloudy 37 3 30 -1 75 75 WNW 6 9 30.17 1022 10 16 N/A
9:15 pm 21:15 Clear 41 5 28 -2 61 61 W 8 13 30.15 1021 10 16 N/A
9:35 pm 21:35 Clear 39 4 28 -2 65 65 NW 8 13 30.16 1021 10 16 N/A
9:55 pm 21:55 Clear 41 5 28 -2 61 61 W 5 7 30.16 1021 10 16 N/A
10:15 pm 22:15 Clear 39 4 28 -2 65 65 SW 3 6 30.18 1022 10 16 N/A
10:35 pm 22:35 Partly Cloudy 37 3 28 -2 70 70 SW 5 7 30.18 1022 10 16 N/A
10:55 pm 22:55 Partly Cloudy 37 3 28 -2 70 70 N N/A 30.18 1022 10 16 N/A
11:15 pm 23:15 Partly Cloudy 37 3 30 -1 75 75 SSW 3 6 30.18 1022 10 16 N/A
11:35 pm 23:35 Partly Cloudy 37 3 30 -1 75 75 SSW 3 6 30.18 1022 10 16 N/A
11:55 pm 23:55 Clear 37 3 30 -1 75 75 N N/A 30.17 1022 10 16 N/A

Powered by AerisWeather